sat.trackr.live / text

‹ back to catalog

ONEWEB-0435

NORAD 51632 · 2022-012L

PAYLOAD ACTIVE UNKNOWN

§ Identity

Operator
Country
UK
Launch date
2022-02-10
Launch site
FRGUI
Launch vehicle
Mass (kg)
RCS (m²)

Purposes: comms

External: N2YO · Heavens-Above · Gunter

§ Orbital elements

Epoch: 2026-05-25T03:15:17.822880Z

Period
109.89 min
Inclination
87.8854°
Eccentricity
0.0001726
Mean motion
13.10376418 rev/d
Perigee alt
1,220.4 km
Apogee alt
1,223.0 km
Semi-major
7,599.8 km
B*
-8.0179e-4
RAAN
40.8677°
Arg perigee
72.2251°
Mean anomaly
287.9064°
Rev number
20,629

§ Raw data

ONEWEB-04351 51632U 22012L   26145.13562295 -.00000267  00000+0 -80179-3 0  99992 51632  87.8854  40.8677 0001726  72.2251 287.9064 13.10376418206295

JSON: /api/v1/satellites/51632 · /tle

For live sub-satellite position, see the globe view (requires WebGL).

§ Visibility from observer

Set your observer location to see the next 7 days of passes ≥ 10°. The values pass through the URL so the page stays shareable.

No JS? Fill the form by hand. The geolocation button needs JavaScript.